Simultaneous Nadir Overpasses (SNOs) Predictions

Prediction of SNOs between NOAA-15 and METOP-C Satellite Orbit:

Table of predicted SNOs for the next 14.0 days since TLE Epoch: 6/25/2022
Index Date (NOAA-15) Time (NOAA-15) Lat,Lon (NOAA-15) SZA (NOAA-15 ) Date (METOP-C) Time (METOP-C) Lat,Lon (METOP-C) SZA (METOP-C ) Distance(km) Time Diff (sec)
1 07/02/2022 03:14:45 -81.07, -10.61 120.08 07/02/2022 03:13:35 -81.07, -10.56 120.11 1.05 70
2 07/02/2022 04:05:16 81.06, 157.05 59.94 07/02/2022 04:04:14 81.07, 156.94 59.92 2.48 62
3 07/02/2022 04:55:47 -81.08, -35.96 120.08 07/02/2022 04:54:57 -81.06, -36.05 120.13 2.35 50
4 07/02/2022 05:46:19 81.08, 131.34 59.92 07/02/2022 05:45:36 81.07, 131.45 59.90 2.26 43
5 07/02/2022 06:36:49 -81.08, -61.30 120.08 07/02/2022 06:36:18 -81.07, -61.18 120.09 2.47 31
6 07/02/2022 07:27:20 81.07, 106.37 59.94 07/02/2022 07:26:57 81.08, 106.33 59.94 1.30 23
7 07/02/2022 08:17:50 -81.07, -86.28 120.06 07/02/2022 08:17:39 -81.08, -86.30 120.06 1.22 11
8 07/02/2022 09:08:22 81.07, 81.03 59.94 07/02/2022 09:08:19 81.07, 80.83 59.92 3.37 3
9 07/02/2022 09:58:52 -81.07,-111.63 120.06 07/02/2022 09:59:01 -81.07,-111.79 120.07 2.88 9
10 07/02/2022 10:49:24 81.07, 55.68 59.94 07/02/2022 10:49:40 81.08, 55.71 59.95 0.68 16
11 07/02/2022 11:39:54 -81.07,-136.97 120.06 07/02/2022 11:40:22 -81.08,-136.92 120.04 1.15 28
12 07/02/2022 12:30:26 81.08, 30.34 59.94 07/02/2022 12:31:02 81.07, 30.21 59.94 2.28 36
13 07/02/2022 13:20:56 -81.08,-162.32 120.06 07/02/2022 13:21:44 -81.07,-162.41 120.06 1.63 48
14 07/02/2022 14:11:28 81.08, 5.00 59.94 07/02/2022 14:12:23 81.08, 5.09 59.97 1.58 55
15 07/02/2022 15:01:58 -81.08, 172.33 120.07 07/02/2022 15:03:05 -81.08, 172.47 120.02 2.31 67



Historial Predications of SNOs between NOAA-15 and METOP-C
